Regional Weather Roundup
Issued by NWS

Home | Current Version | Previous Version | Graphics & Text | Print | Product List | Glossary On
Versions: 1 2 3 4 5 6 7 8 9 10 11 12 13 14 15 16 17 18 19 20 21 22 23 24 25 26 27 28 29 30 31 32 33 34 35 36 37 38 39 40 41 42 43 44 45 46 47 48 49 50
519
ASUS43 KLSX 271457
RWRMO

WEATHER SUMMARY FOR MISSOURI
NATIONAL WEATHER SERVICE SPRINGFIELD MO
1000 AM CDT SAT AUG 27 2016

NOTE: "FAIR" INDICATES FEW OR NO CLOUDS BELOW 12,000 FEET WITH NO
       SIGNIFICANT WEATHER AND/OR OBSTRUCTIONS TO VISIBILITY.
       CURRENT SKY AND/OR WEATHER CONDITIONS ARE NOT AVAILABLE FOR
       CHILLICOTHE AND FARMINGTON.

MOZ001>031-035>038-043-044-053-054-271600-
...NORTHERN AND WESTERN MISSOURI...

CITY           SKY/WX    TMP DP  RH WIND       PRES   REMARKS
KANSAS CTY INT MOSUNNY   74  67  78 S8        30.04R
LEE`S SUMMIT   SUNNY     77  71  82 S8        30.04F
ST JOSEPH      CLOUDY    73  69  87 CALM      30.04R

$$
MOZ066>068-077>081-088>096-101>105-271600-
...SOUTHWEST MISSOURI...

CITY           SKY/WX    TMP DP  RH WIND       PRES   REMARKS
SPRINGFIELD    CLOUDY    79  71  76 SW6       30.10S
JOPLIN         SUNNY     79  70  74 S7        30.09S
BRANSON        MOSUNNY   77  72  83 CALM      30.12R

$$
MOZ032>034-039>042-045>050-055>058-069>072-271600-
...CENTRAL MISSOURI...

CITY           SKY/WX    TMP DP  RH WIND       PRES   REMARKS
COLUMBIA       NOT AVBL
JEFFERSON CITY PTSUNNY   77  73  87 S6        30.07S
ROLLA          CLOUDY    77  72  84 SW7       30.09S
SEDALIA        MOSUNNY   80  73  79 W8        30.08S

$$
MOZ051-052-059>065-271600-
...EAST CENTRAL MISSOURI...

CITY           SKY/WX    TMP DP  RH WIND       PRES   REMARKS
ST LOUIS INTL  PTSUNNY   83  68  60 SW10      30.08F

$$
MOZ072>076-082>087-097>100-106>115-271600-
...SOUTH CENTRAL AND SOUTHEAST MISSOURI...

CITY           SKY/WX    TMP DP  RH WIND       PRES   REMARKS
CAPE GIRARDEAU MOSUNNY   76  70  82 CALM      30.09S
POPLAR BLUFF   SUNNY     78  72  81 CALM      30.09R
WEST PLAINS    MOSUNNY   80  71  74 W3        30.13S

$$



USA.gov is the U.S. government's official web portal to all federal, state and local government web resources and services.